EW7966 Weather Reports


Display with metric or nautical units.
time (UTC)temp
F
wind
direction
speed
MPH
gust
MPH
rain 1hr
in
rain 24hr
in
rain mn
in
humidity
%
barometer
mb
20260508124505 38 329 1.0 2.0 0.00 0.00 0.00 94 1015.8
20260508124503 38 329 0.0 2.0 0.00 0.00 0.00 94 1009.2
20260508124006 37 329 0.0 0.0 0.00 0.00 0.00 94 1015.7
20260508123504 37 329 0.0 0.0 0.00 0.00 0.00 93 1015.7
20260508123007 37 329 0.0 0.0 0.00 0.00 0.00 93 1015.4
20260508123005 37 329 0.0 0.0 0.00 0.00 0.00 93 1008.8
20260508122505 37 329 0.0 1.0 0.00 0.00 0.00 93 1015.4
20260508122007 37 329 0.0 0.0 0.00 0.00 0.00 94 1015.2
20260508121505 37 329 0.0 1.0 0.00 0.00 0.00 93 1015.1
20260508121503 37 329 0.0 1.0 0.00 0.00 0.00 93 1008.5
20260508120507 36 329 0.0 2.0 0.00 0.00 0.00 93 1014.8
20260508120004 36 329 0.0 2.0 0.00 0.00 0.00 92 1008.2
20260508115505 36 329 0.0 2.0 0.00 0.00 0.00 93 1014.8
20260508115006 36 329 0.0 2.0 0.00 0.00 0.00 92 1014.7
20260508114506 35 329 0.0 0.0 0.00 0.00 0.00 92 1014.7
20260508114503 35 329 0.0 0.0 0.00 0.00 0.00 92 1008.1
20260508114006 35 329 0.0 0.0 0.00 0.00 0.00 91 1014.8
20260508113006 35 329 1.0 3.0 0.00 0.00 0.00 90 1014.7
20260508113004 35 329 0.0 3.0 0.00 0.00 0.00 90 1008.1
20260508112505 36 329 1.0 3.0 0.00 0.00 0.00 89 1014.6
20260508111505 36 15 1.0 8.0 0.00 0.00 0.00 88 1014.7
20260508111005 37 355 2.0 5.0 0.00 0.00 0.00 90 1014.4
20260508110006 37 206 1.0 4.0 0.00 0.00 0.00 91 1013.8
20260508110003 37 206 0.0 4.0 0.00 0.00 0.00 91 1007.3
20260508105505 37 173 3.0 4.0 0.00 0.00 0.00 91 1013.8
20260508105007 36 215 2.0 4.0 0.00 0.00 0.00 91 1013.8
20260508104505 36 215 2.0 5.0 0.00 0.00 0.00 89 1013.8
20260508104503 36 215 1.0 5.0 0.00 0.00 0.00 89 1007.3
20260508104005 36 215 2.0 5.0 0.00 0.00 0.00 89 1013.8
20260508103505 36 227 4.0 5.0 0.00 0.00 0.00 90 1013.8
20260508103006 36 200 3.0 7.0 0.00 0.00 0.00 90 1013.8
20260508102505 36 208 5.0 7.0 0.00 0.00 0.00 90 1014.0
20260508102006 36 221 4.0 6.0 0.00 0.00 0.00 90 1014.0
20260508101505 36 219 3.0 5.0 0.00 0.00 0.00 90 1013.9
20260508101005 36 144 1.0 3.0 0.00 0.00 0.00 90 1013.9
20260508100506 36 144 2.0 3.0 0.00 0.00 0.00 89 1013.9
20260508100004 36 144 1.0 3.0 0.00 0.00 0.00 89 1007.8
20260508095506 36 144 1.0 2.0 0.00 0.00 0.00 87 1014.1
20260508095007 37 144 0.0 0.0 0.00 0.00 0.00 88 1014.1
20260508094507 37 144 0.0 0.0 0.00 0.00 0.00 89 1014.0
20260508094504 37 144 0.0 0.0 0.00 0.00 0.00 89 1007.8
20260508094007 37 144 154.0 655.0 2.02 0.00 0.00 89
20260508093507 37 144 0.0 0.0 0.00 0.00 0.00 88 1014.2
20260508093006 37 144 0.0 1.0 0.00 0.00 0.00 88 1014.2
20260508093003 37 144 0.0 1.0 0.00 0.00 0.00 88 1008.0
20260508092505 37 144 0.0 4.0 0.00 0.00 0.00 86 1014.2
20260508092006 38 144 2.0 4.0 0.00 0.00 0.00 86 1014.2
20260508091505 38 144 1.0 3.0 0.00 0.00 0.00 85 1014.2
20260508091503 38 144 1.0 3.0 0.00 0.00 0.00 85 1008.0
20260508091007 38 144 0.0 0.0 0.00 0.00 0.00 83 1014.2
20260508090505 39 144 0.0 1.0 0.00 0.00 0.00 84 1014.2
20260508090009 40 144 1.0 4.0 0.00 0.00 0.00 86 1014.2
20260508085504 39 144 3.0 4.0 0.00 0.00 0.00 87 1014.2
20260508085006 39 144 1.0 2.0 0.00 0.00 0.00 87 1014.4
20260508084505 39 144 0.0 0.0 0.00 0.00 0.00 85 1014.4
20260508084006 39 144 0.0 0.0 0.00 0.00 0.00 83 1014.5
20260508083506 39 144 0.0 2.0 0.00 0.00 0.00 83 1014.5
20260508083006 40 144 0.0 3.0 0.00 0.00 0.00 83 1008.1
20260508082505 40 144 2.0 4.0 0.00 0.00 0.00 84 1014.2
20260508082006 40 144 2.0 4.0 0.00 0.00 0.00 83 1014.2
20260508081505 41 144 2.0 4.0 0.00 0.00 0.00 83 1014.3
20260508081503 41 144 2.0 4.0 0.00 0.00 0.00 83 1008.1
20260508081007 41 144 3.0 4.0 0.00 0.00 0.00 83 1014.4
20260508080505 41 144 1.0 3.0 0.00 0.00 0.00 80 1014.5
20260508080010 42 144 0.0 3.0 0.00 0.00 0.00 78 1008.4
20260508080008 42 144 0.0 3.0 0.00 0.00 0.00 78 1014.6
20260508074515 43 144 2.0 6.0 0.00 0.00 0.00 79 1008.4
20260508074007 43 144 4.0 6.0 0.00 0.00 0.00 78 1014.6
20260508073007 44 112 3.0 4.0 0.00 0.00 0.00 77 1014.8
20260508073002 44 112 2.0 4.0 0.00 0.00 0.00 77 1008.8
20260508072505 44 62 2.0 6.0 0.00 0.00 0.00 77 1014.8
20260508072006 44 62 3.0 6.0 0.00 0.00 0.00 77 1014.9
20260508071505 44 59 4.0 6.0 0.00 0.00 0.00 77 1015.0
20260508071006 44 54 4.0 6.0 0.00 0.00 0.00 77 1015.1
20260508070504 44 46 3.0 4.0 0.00 0.00 0.00 78 1015.4
20260508070004 44 24 0.0 4.0 0.00 0.00 0.00 77 1009.6
20260508065505 44 24 3.0 4.0 0.00 0.00 0.00 76 1015.6
20260508065006 45 22 2.0 4.0 0.00 0.00 0.00 73 1015.7
20260508064505 46 134 2.0 3.0 0.00 0.00 0.00 72 1015.1
20260508064503 46 134 2.0 3.0 0.00 0.00 0.00 72 1009.3
20260508064006 46 134 0.0 1.0 0.00 0.00 0.00 71 1014.8
20260508063508 46 134 0.0 2.0 0.00 0.00 0.00 71 1014.8
20260508063006 46 134 1.0 3.0 0.00 0.00 0.00 72 1014.8
20260508063002 46 134 0.0 3.0 0.00 0.00 0.00 72 1009.1
20260508062506 46 134 2.0 3.0 0.00 0.00 0.00 72 1014.7
20260508062005 46 134 1.0 4.0 0.00 0.00 0.00 71 1014.7
20260508061506 46 134 2.0 4.0 0.00 0.00 0.00 71 1014.6
20260508061503 46 134 2.0 4.0 0.00 0.00 0.00 71 1009.0
20260508061006 46 134 2.0 5.0 0.00 0.00 0.00 71 1014.6
20260508060004 47 136 2.0 7.0 0.00 0.00 0.00 70 1009.0
20260508055503 47 136 4.0 7.0 0.00 0.00 0.00 69 1014.8
20260508055004 47 82 3.0 5.0 0.00 0.00 0.00 68 1014.8
20260508054504 47 44 2.0 5.0 0.00 0.00 0.00 69 1015.0
20260508054005 47 44 3.0 8.0 0.00 0.00 0.00 68 1015.0
20260508053005 48 15 3.0 6.0 0.00 0.00 0.00 67 1015.4
20260508053002 48 15 3.0 6.0 0.00 0.00 0.00 67 1009.9
20260508052504 48 15 5.0 6.0 0.00 0.00 0.00 66 1015.1
20260508052004 48 92 1.0 4.0 0.00 0.00 0.00 64 1014.8
20260508051504 48 92 0.0 3.0 0.00 0.00 0.00 63 1014.6
20260508051502 48 92 0.0 3.0 0.00 0.00 0.00 63 1009.3
20260508051005 49 92 2.0 3.0 0.00 0.00 0.00 62 1014.4
20260508050504 49 92 0.0 4.0 0.00 0.00 0.00 61 1014.5
20260508050006 49 92 4.0 4.0 0.00 0.00 0.00 60 1014.5
20260508050002 49 92 3.0 4.0 0.00 0.00 0.00 60 1009.3
20260508045504 50 92 0.0 4.0 0.00 0.00 0.00 59 1014.4
20260508045005 50 92 2.0 9.0 0.00 0.00 0.00 59 1014.4
20260508044504 50 100 5.0 9.0 0.00 0.00 0.00 59 1014.4
20260508044502 50 100 4.0 9.0 0.00 0.00 0.00 59 1009.3
20260508043006 50 109 0.0 0.0 0.00 0.00 0.00 57 1014.5
20260508043002 50 109 0.0 0.0 0.00 0.00 0.00 57 1009.5
20260508042004 51 109 0.0 2.0 0.00 0.00 0.00 57 1014.3
20260508041505 51 109 1.0 3.0 0.00 0.00 0.00 55 1014.2
20260508041503 51 109 0.0 3.0 0.00 0.00 0.00 55 1009.3
20260508041004 51 109 2.0 3.0 0.00 0.00 0.00 53 1014.2
20260508040504 51 109 2.0 3.0 0.00 0.00 0.00 55 1014.2
20260508040006 51 109 0.0 3.0 0.00 0.00 0.00 55 1014.3
20260508040003 51 109 0.0 3.0 0.00 0.00 0.00 55 1009.5
20260508035505 51 109 0.0 7.0 0.00 0.00 0.00 56 1014.3
20260508034501 51 328 1.0 2.0 0.00 0.00 0.00 53 1009.8
20260508034004 51 328 0.0 2.0 0.00 0.00 0.00 54 1014.6
20260508033504 52 328 0.0 2.0 0.00 0.00 0.00 54 1014.7
20260508033057 52 328 1.0 2.0 0.00 0.00 0.00 53 1010.0
20260508033002 52 11 1.0 2.0 0.00 0.00 0.00 53 1014.7
20260508032504 52 11 0.0 4.0 0.00 0.00 0.00 51 1014.4
20260508031502 53 329 1.0 12.0 0.00 0.00 0.00 50 1009.6
20260508031005 53 15 5.0 15.0 0.00 0.00 0.00 49 1014.1
20260508030504 53 19 6.0 15.0 0.00 0.00 0.00 49 1014.1
20260508030006 53 43 9.0 14.0 0.00 0.00 0.00 50 1013.9
20260508030003 53 43 9.0 14.0 0.00 0.00 0.00 50 1009.3
20260508025504 53 43 8.0 13.0 0.00 0.00 0.00 50 1013.9
20260508025005 53 9 6.0 13.0 0.00 0.00 0.00 51 1014.0
20260508024504 53 26 8.0 18.0 0.00 0.00 0.00 52 1013.9
20260508024502 53 26 8.0 18.0 0.00 0.00 0.00 52 1009.3
20260508024004 53 13 11.0 18.0 0.00 0.00 0.00 51 1014.0
20260508023500 54 355 4.0 10.0 0.00 0.00 0.00 51 1013.9
20260508023004 54 305 1.0 2.0 0.00 0.00 0.00 52 1013.7
20260508023002 54 305 1.0 2.0 0.00 0.00 0.00 52 1009.2
20260508022504 54 305 0.0 5.0 0.00 0.00 0.00 49 1013.3
20260508022004 54 305 2.0 5.0 0.00 0.00 0.00 57 1013.3
20260508021504 54 305 0.0 3.0 0.00 0.00 0.00 53 1013.2
20260508021502 54 305 0.0 3.0 0.00 0.00 0.00 53 1008.9
20260508020500 55 305 1.0 3.0 0.00 0.00 0.00 55 1013.1
20260508020006 56 305 0.0 2.0 0.00 0.00 0.00 45 1012.9
20260508020003 56 305 0.0 2.0 0.00 0.00 0.00 45 1008.8
20260508014504 57 305 0.0 0.0 0.00 0.00 0.00 39 1012.7
20260508014502 57 305 0.0 0.0 0.00 0.00 0.00 39 1008.8
20260508014006 57 305 0.0 0.0 0.00 0.00 0.00 36 1012.7
20260508013503 58 305 0.0 0.0 0.00 0.00 0.00 36 1012.6
20260508013006 58 305 0.0 0.0 0.00 0.00 0.00 37 1012.5
20260508013001 58 305 0.0 0.0 0.00 0.00 0.00 37 1008.6
20260508012503 58 305 0.0 0.0 0.00 0.00 0.00 36 1012.5
20260508012004 58 305 0.0 0.0 0.00 0.00 0.00 37 1012.4
20260508011508 58 305 0.0 0.0 0.00 0.00 0.00 44 1008.7
20260508010504 58 305 0.0 0.0 0.00 0.00 0.00 38 1012.5
20260508010002 58 305 0.0 1.0 0.00 0.00 0.00 40 1008.8
20260508005504 59 305 0.0 2.0 0.00 0.00 0.00 40 1012.4
20260508005005 59 305 0.0 4.0 0.00 0.00 0.00 36 1012.4
20260508004504 59 305 3.0 7.0 0.00 0.00 0.00 34 1012.3
20260508004502 59 305 2.0 7.0 0.00 0.00 0.00 34 1008.8
20260508004008 60 298 4.0 9.0 0.00 0.00 0.00 32 1012.3
20260508003504 60 293 5.0 9.0 0.00 0.00 0.00 33 1012.3
20260508003001 61 290 5.0 11.0 0.00 0.00 0.00 29 1008.9
20260508002004 62 318 5.0 10.0 0.00 0.00 0.00 29 1012.3
20260508001504 62 257 3.0 10.0 0.00 0.00 0.00 30 1012.4
20260508001501 62 257 2.0 10.0 0.00 0.00 0.00 30 1009.1
20260508001004 62 239 6.0 11.0 0.00 0.00 0.00 30 1012.5
20260508000504 63 288 5.0 11.0 0.00 0.00 0.00 29 1012.4
20260508000006 62 286 5.0 12.0 0.00 0.00 0.00 29 1012.4
20260508000003 62 286 4.0 12.0 0.00 0.00 0.00 29 1009.3
20260507235004 63 252 5.0 11.0 0.00 0.00 0.00 29 1012.4
20260507234504 62 298 8.0 12.0 0.00 0.00 0.00 29 1012.4
20260507234502 62 298 7.0 12.0 0.00 0.00 0.00 29 1009.4
20260507233504 63 294 4.0 15.0 0.00 0.00 0.00 29 1012.5
20260507233005 63 303 6.0 13.0 0.00 0.00 0.00 29 1009.6
20260507232503 62 300 7.0 14.0 0.00 0.00 0.00 30 1012.5
20260507231504 61 294 9.0 14.0 0.00 0.00 0.00 32 1012.5
20260507231502 61 294 8.0 14.0 0.00 0.00 0.00 32 1009.7
20260507231004 60 294 6.0 8.0 0.00 0.00 0.00 34 1012.6
20260507230504 60 316 4.0 9.0 0.00 0.00 0.00 33 1012.6
20260507230005 60 292 4.0 9.0 0.00 0.00 0.00 32 1012.6
20260507230003 60 292 3.0 9.0 0.00 0.00 0.00 32 1010.0
20260507225504 61 289 3.0 11.0 0.00 0.00 0.00 32 1012.5
20260507225005 62 262 4.0 16.0 0.00 0.00 0.00 31 1012.6
20260507224504 63 284 8.0 18.0 0.00 0.00 0.00 31 1012.6
20260507224501 63 284 7.0 18.0 0.00 0.00 0.00 31 1010.0
20260507223504 63 294 10.0 16.0 0.00 0.00 0.00 30 1012.6
20260507223004 63 281 11.0 16.0 0.00 0.00 0.00 29 1012.6
20260507223002 63 281 10.0 16.0 0.00 0.00 0.00 29 1010.2
20260507222005 63 293 7.0 18.0 0.00 0.00 0.00 32 1012.7
20260507221503 63 289 11.0 18.0 0.00 0.00 0.00 31 1012.7
20260507221501 63 289 11.0 18.0 0.00 0.00 0.00 31 1010.4
20260507220503 62 289 11.0 18.0 0.00 0.00 0.00 32 1013.0
20260507220009 63 316 10.0 16.0 0.00 0.00 0.00 30 1013.0
20260507220002 63 316 9.0 16.0 0.00 0.00 0.00 30 1010.9
20260507215504 63 304 9.0 19.0 0.00 0.00 0.00 33 1013.0
20260507215005 62 290 10.0 20.0 0.00 0.00 0.00 35 1013.2
20260507214504 62 287 14.0 20.0 0.00 0.00 0.00 31 1013.2
20260507214501 62 287 14.0 20.0 0.00 0.00 0.00 31 1011.2
20260507214004 62 310 11.0 18.0 0.00 0.00 0.00 30 1013.2
20260507213504 62 280 12.0 19.0 0.00 0.00 0.00 31 1013.2
20260507213005 62 313 12.0 19.0 0.00 0.00 0.00 32 1013.3
20260507212503 62 291 12.0 19.0 0.00 0.00 0.00 32 1013.4
20260507212005 62 286 10.0 22.0 0.00 0.00 0.00 32 1013.4
20260507211504 62 298 13.0 22.0 0.00 0.00 0.00 30 1013.4
20260507211502 62 298 13.0 22.0 0.00 0.00 0.00 30 1011.6
20260507210503 62 284 13.0 20.0 0.00 0.00 0.00 30 1013.5
20260507210006 62 292 13.0 17.0 0.00 0.00 0.00 31 1013.4
20260507210004 62 292 12.0 17.0 0.00 0.00 0.00 31 1011.8
20260507205504 62 294 11.0 19.0 0.00 0.06 0.00 33 1013.4
20260507204504 62 300 15.0 22.0 0.00 0.06 0.00 30 1013.6
20260507204502 62 300 15.0 22.0 0.00 0.06 0.00 30 1012.1
20260507203003 62 288 11.0 19.0 0.00 0.06 0.00 31 1012.5
20260507202504 62 284 6.0 15.0 0.00 0.06 0.00 37 1013.9
20260507202008 62 263 9.0 15.0 0.00 0.06 0.00 32 1014.0
20260507201512 62 294 5.0 15.0 0.00 0.06 0.00 35 1012.8
20260507201507 62 294 6.0 15.0 0.00 0.06 0.00 35 1014.0
20260507201004 61 273 8.0 15.0 0.00 0.06 0.00 34 1014.2
20260507200506 61 292 9.0 19.0 0.00 0.06 0.00 35 1014.2
20260507200009 61 259 12.0 19.0 0.00 0.06 0.00 32 1013.3
20260507200007 61 259 13.0 19.0 0.00 0.06 0.00 32 1014.2
20260507195509 62 296 5.0 11.0 0.00 0.23 0.00 35 1014.2
20260507195006 61 306 4.0 11.0 0.00 0.23 0.00 32 1014.2
20260507194506 61 263 3.0 10.0 0.00 0.23 0.00 33 1014.3
20260507194006 61 244 4.0 11.0 0.00 0.23 0.00 33 1014.4
20260507193505 60 269 5.0 13.0 0.00 0.23 0.00 32 1014.5
20260507193008 60 305 8.0 13.0 0.00 0.23 0.00 35 1013.8
20260507192506 60 246 6.0 12.0 0.00 0.23 0.00 32 1014.5
20260507192005 60 244 6.0 15.0 0.00 0.23 0.00 32 1014.6
20260507191506 60 284 6.0 15.0 0.00 0.23 0.00 38 1014.6
20260507191503 60 284 5.0 15.0 0.00 0.23 0.00 38 1014.2
20260507191006 60 326 6.0 14.0 0.00 0.23 0.00 38 1014.6
20260507190507 60 285 5.0 14.0 0.00 0.23 0.00 37 1014.7
20260507190006 60 306 7.0 13.0 0.00 0.23 0.00 35 1014.8
20260507190004 60 306 7.0 13.0 0.00 0.23 0.00 35 1014.6
20260507185506 60 300 6.0 11.0 0.00 0.37 0.00 36 1014.9
20260507185006 60 301 4.0 11.0 0.00 0.37 0.00 31 1014.9
20260507184507 59 308 5.0 11.0 0.00 0.37 0.00 27 1015.0
20260507184504 59 308 4.0 11.0 0.00 0.37 0.00 27 1014.9
20260507184006 59 267 8.0 11.0 0.00 0.37 0.00 29 1015.0
20260507183505 59 226 4.0 10.0 0.00 0.37 0.00 33 1015.0
20260507183007 59 302 5.0 10.0 0.00 0.37 0.00 34 1015.0
20260507183003 59 302 5.0 10.0 0.00 0.37 0.00 34 1015.0
20260507182506 59 187 3.0 8.0 0.00 0.37 0.00 38 1015.1
20260507182007 59 309 3.0 8.0 0.00 0.37 0.00 34 1015.0
20260507181507 58 234 3.0 9.0 0.00 0.37 0.00 40 1015.2
20260507181504 58 234 3.0 9.0 0.00 0.37 0.00 40 1015.2
20260507181007 58 273 4.0 10.0 0.00 0.37 0.00 38 1015.2
20260507180506 58 215 4.0 8.0 0.00 0.37 0.00 36 1015.2
20260507180006 57 252 3.0 8.0 0.00 0.37 0.00 38 1015.3
20260507180003 57 252 3.0 8.0 0.00 0.37 0.00 38 1015.5
20260507175506 57 252 2.0 10.0 0.00 0.39 0.00 41 1015.3
20260507175005 57 263 5.0 10.0 0.00 0.39 0.00 38 1015.3
20260507174508 57 286 4.0 9.0 0.00 0.39 0.00 46 1015.4
20260507174505 57 286 4.0 9.0 0.00 0.39 0.00 46 1015.7
20260507174006 56 306 5.0 9.0 0.00 0.39 0.00 44 1015.5
20260507173506 56 297 4.0 9.0 0.00 0.39 0.00 47 1015.5
20260507173004 55 248 3.0 9.0 0.00 0.39 0.00 47 1016.0
20260507172506 55 239 4.0 10.0 0.00 0.39 0.00 48 1015.7
20260507172006 55 252 4.0 10.0 0.00 0.39 0.00 46 1015.7
20260507171505 54 265 3.0 10.0 0.00 0.39 0.00 46 1015.7
20260507171007 54 278 3.0 10.0 0.00 0.39 0.00 44 1015.7
20260507170506 54 236 4.0 11.0 0.00 0.39 0.00 45 1015.7
20260507170007 53 244 6.0 11.0 0.00 0.39 0.00 43 1015.8
20260507170005 53 244 5.0 11.0 0.00 0.39 0.00 43 1016.6
20260507165506 53 251 4.0 9.0 0.00 0.39 0.00 45 1015.9
20260507164506 53 170 4.0 12.0 0.00 0.39 0.00 46 1016.0
20260507164504 53 170 4.0 12.0 0.00 0.39 0.00 46 1016.8
20260507164006 52 227 4.0 12.0 0.00 0.39 0.00 47 1016.0
20260507163506 52 275 4.0 9.0 0.00 0.39 0.00 50 1016.0
20260507163007 52 265 5.0 10.0 0.00 0.39 0.00 50 1016.1
20260507163004 52 265 4.0 10.0 0.00 0.39 0.00 50 1017.0
20260507162006 50 284 5.0 10.0 0.00 0.39 0.00 51 1016.1
20260507161505 50 245 2.0 9.0 0.00 0.39 0.00 52 1017.3
20260507161008 50 251 3.0 8.0 0.00 0.39 0.00 53 1016.3
20260507160506 49 262 4.0 8.0 0.00 0.39 0.00 52 1016.3
20260507160005 49 271 4.0 10.0 0.00 0.39 0.00 51 1017.5
20260507155506 48 252 4.0 10.0 0.00 0.40 0.00 52 1016.3
20260507155007 48 259 3.0 9.0 0.00 0.40 0.00 52 1016.3
20260507154504 47 257 3.0 11.0 0.00 0.40 0.00 54 1016.4
20260507154502 47 257 2.0 11.0 0.00 0.40 0.00 54 1017.7
20260507154008 47 223 4.0 11.0 0.00 0.40 0.00 52 1016.4
20260507153507 47 259 5.0 9.0 0.00 0.40 0.00 53 1016.3
20260507153007 47 288 5.0 9.0 0.00 0.40 0.00 52 1016.2
20260507153003 47 288 4.0 9.0 0.00 0.40 0.00 52 1017.6
20260507152506 46 209 6.0 9.0 0.00 0.40 0.00 52 1016.2
20260507152007 46 257 5.0 11.0 0.00 0.40 0.00 53 1016.1
20260507151506 45 263 4.0 9.0 0.00 0.40 0.00 55 1016.1
20260507151005 45 240 5.0 9.0 0.00 0.40 0.00 55 1016.2
20260507150505 45 210 3.0 7.0 0.00 0.40 0.00 56 1016.3
20260507150007 44 269 4.0 8.0 0.00 0.40 0.00 55 1016.3
20260507145507 44 284 4.0 8.0 0.00 0.40 0.00 56 1016.1
20260507145007 44 258 3.0 10.0 0.00 0.40 0.00 57 1016.1
20260507144505 43 246 4.0 10.0 0.00 0.40 0.00 56 1016.2
20260507144006 43 263 2.0 9.0 0.00 0.40 0.00 58 1016.1
20260507143504 43 251 2.0 9.0 0.00 0.40 0.00 58 1016.2
20260507143006 42 252 4.0 10.0 0.00 0.40 0.00 57 1016.2
20260507143003 42 252 4.0 10.0 0.00 0.40 0.00 57 1017.9
20260507142506 42 234 4.0 10.0 0.00 0.40 0.00 57 1016.3
20260507142007 42 277 3.0 9.0 0.00 0.40 0.00 57 1016.2
20260507141506 42 263 4.0 10.0 0.00 0.40 0.00 57 1016.2
20260507141504 42 263 3.0 10.0 0.00 0.40 0.00 57 1018.0
20260507141007 41 257 4.0 10.0 0.00 0.40 0.00 56 1016.2
20260507140505 41 270 3.0 10.0 0.00 0.40 0.00 58 1016.1
20260507140006 40 247 4.0 9.0 0.00 0.40 0.00 58 1016.1
20260507140001 40 247 3.0 9.0 0.00 0.40 0.00 58 1018.1
20260507135506 40 223 3.0 7.0 0.00 0.40 0.00 57 1016.1
20260507135006 40 212 3.0 7.0 0.00 0.40 0.00 58 1016.2
20260507134510 39 240 3.0 7.0 0.00 0.40 0.00 59 1018.3
20260507134506 39 240 3.0 7.0 0.00 0.40 0.00 59 1016.2
20260507134007 39 261 2.0 7.0 0.00 0.40 0.00 60 1016.1
20260507133506 38 221 3.0 8.0 0.00 0.40 0.00 60 1016.1
20260507133006 38 234 4.0 9.0 0.00 0.40 0.00 60 1016.0
20260507133004 38 234 3.0 9.0 0.00 0.40 0.00 60 1018.2
20260507132505 38 254 4.0 9.0 0.00 0.40 0.00 60 1016.0
20260507132006 37 254 3.0 10.0 0.00 0.40 0.00 59 1015.9
20260507131506 37 238 4.0 10.0 0.00 0.40 0.00 60 1015.9
20260507131504 37 238 3.0 10.0 0.00 0.40 0.00 60 1018.2
20260507131000 37 200 4.0 10.0 0.00 0.40 0.00 61 1015.9
20260507130006 36 255 4.0 9.0 0.00 0.40 0.00 60 1015.8
20260507130004 36 255 4.0 9.0 0.00 0.40 0.00 60 1018.2
20260507125506 36 208 4.0 8.0 0.00 0.40 0.00 60 1015.7
20260507125006 35 229 4.0 8.0 0.00 0.40 0.00 62 1015.7